Location: Marcé
(47.5801°N, 0.3280°W)
Time: 12:12:42
(UTC+01:00)

Explorer 7 - Pass Details

Date: 11 December 2021
Orbit: 483 x 674 km, 50.3° (Epoch: 19 January)

Event Time Altitude Azimuth Distance (km) Brightness Sun altitude
Exits shadow 05:07:56 17° 72° (ENE) 1,470 9.6 -34.5°
Drops below altitude 10° 05:08:57 10° 71° (ENE) 1,862 10.3 -34.4°
Sets 05:11:08 0° 71° (ENE) 2,727 11.3 -34.0°
